EW5186 Weather Reports


Display with metric or nautical units.
time (UTC)temp
F
wind
direction
speed
MPH
gust
MPH
rain 1hr
in
rain 24hr
in
rain mn
in
humidity
%
barometer
mb
20260508011543 48 177 0.0 0.0 0.00 0.25 0.24 67 1010.6
20260508010033 48 186 0.0 0.0 0.00 0.25 0.24 67 1010.5
20260508004526 49 286 0.0 0.0 0.00 0.25 0.24 64 1010.2
20260508003014 50 286 0.0 0.0 0.00 0.25 0.24 61 1009.9
20260508001513 51 285 0.0 0.0 0.00 0.25 0.24 55 1009.7
20260508000013 53 196 0.0 0.0 0.00 0.25 0.24 52 1009.6
20260507234516 55 273 0.0 4.0 0.00 0.25 0.24 48 1009.4
20260507233025 56 261 0.0 6.0 0.00 0.25 0.24 46 1009.3
20260507231509 57 114 0.0 5.0 0.00 0.25 0.24 46 1009.2
20260507230008 57 318 0.0 3.0 0.00 0.25 0.24 46 1009.0
20260507224508 58 264 1.0 7.0 0.00 0.25 0.24 44 1009.0
20260507223050 60 288 0.0 7.0 0.00 0.25 0.24 44 1009.0
20260507221550 62 105 0.0 8.0 0.00 0.25 0.24 42 1008.9
20260507220033 63 292 0.0 6.0 0.00 0.25 0.24 43 1008.8
20260507214534 62 283 3.0 10.0 0.00 0.25 0.24 40 1008.7
20260507213015 64 138 1.0 6.0 0.00 0.25 0.24 41 1008.6
20260507211520 63 281 1.0 7.0 0.00 0.25 0.24 38 1008.4
20260507204557 63 250 2.0 8.0 0.00 0.28 0.24 43 1008.3
20260507203045 64 300 1.0 9.0 0.00 0.28 0.24 40 1008.4
20260507201537 63 297 2.0 5.0 0.00 0.28 0.24 42 1008.4
20260507200022 62 278 0.0 9.0 0.00 0.28 0.24 44 1008.4
20260507194522 63 274 0.0 6.0 0.00 0.28 0.24 44 1008.6
20260507193022 62 243 1.0 10.0 0.00 0.28 0.24 41 1008.7
20260507191518 63 289 2.0 8.0 0.00 0.28 0.24 45 1008.8
20260507190016 62 6 2.0 7.0 0.00 0.31 0.24 38 1008.9
20260507184515 62 257 0.0 8.0 0.00 0.31 0.24 45 1009.1
20260507183014 62 122 0.0 11.0 0.00 0.31 0.24 46 1009.3
20260507181513 62 188 0.0 6.0 0.00 0.31 0.24 45 1009.3
20260507180054 62 285 3.0 13.0 0.00 0.38 0.24 41 1009.6
20260507174553 61 57 1.0 5.0 0.00 0.38 0.24 42 1009.8
20260507173042 62 275 1.0 8.0 0.00 0.38 0.24 40 1010.1
20260507171541 61 55 3.0 9.0 0.00 0.38 0.24 42 1010.3
20260507170040 61 1 2.0 8.0 0.00 0.38 0.24 42 1010.3
20260507164548 60 311 1.0 8.0 0.00 0.38 0.24 43 1010.5
20260507163035 60 310 2.0 8.0 0.00 0.38 0.24 46 1010.6
20260507161535 59 143 3.0 10.0 0.00 0.38 0.24 44 1010.9
20260507160033 59 308 3.0 11.0 0.00 0.38 0.24 46 1011.1
20260507154531 59 6 2.0 8.0 0.00 0.38 0.24 42 1011.1
20260507153028 58 347 1.0 10.0 0.00 0.38 0.24 47 1011.3
20260507151509 57 131 1.0 12.0 0.00 0.38 0.24 47 1011.4
20260507150019 57 44 2.0 10.0 0.00 0.38 0.24 45 1011.4
20260507144549 57 278 3.0 9.0 0.00 0.38 0.24 47 1011.4
20260507143048 56 294 3.0 11.0 0.00 0.38 0.24 51 1011.4
20260507141525 55 304 1.0 7.0 0.00 0.38 0.24 55 1011.4
20260507140027 54 233 1.0 6.0 0.00 0.38 0.24 58 1011.6
20260507134509 55 311 3.0 11.0 0.00 0.38 0.24 57 1011.2
20260507133002 54 287 2.0 9.0 0.00 0.38 0.24 63 1011.2
20260507131550 53 114 1.0 8.0 0.00 0.38 0.24 70 1011.3
20260507130055 52 63 2.0 10.0 0.00 0.38 0.24 69 1011.3
20260507124530 51 268 3.0 9.0 0.00 0.38 0.24 74 1011.5
20260507123022 49 312 3.0 10.0 0.00 0.38 0.24 77 1011.7
20260507121507 49 49 0.0 5.0 0.00 0.38 0.24 85 1011.6
20260507120007 48 228 0.0 3.0 0.00 0.38 0.24 90 1011.1
20260507114506 47 359 0.0 3.0 0.00 0.38 0.24 91 1011.1
20260507113010 47 279 1.0 5.0 0.00 0.38 0.24 92 1011.3
20260507111603 47 345 0.0 4.0 0.00 0.38 0.24 93 1010.9
20260507110100 47 258 0.0 4.0 0.00 0.38 0.24 93 1010.8
20260507104557 47 124 0.0 1.0 0.01 0.38 0.24 94 1010.4
20260507103056 47 262 0.0 2.0 0.01 0.38 0.24 94 1010.6
20260507101543 47 156 0.0 4.0 0.02 0.38 0.24 94 1010.4
20260507100037 47 277 0.0 1.0 0.04 0.38 0.24 94 1010.2
20260507094517 47 195 0.0 3.0 0.05 0.37 0.23 94 1010.3
20260507093017 47 190 0.0 1.0 0.06 0.37 0.23 94 1009.8
20260507091558 47 285 0.0 2.0 0.06 0.36 0.22 94 1009.8
20260507084555 48 129 0.0 2.0 0.04 0.32 0.18 93 1009.9
20260507083044 48 163 0.0 4.0 0.06 0.31 0.17 93 1009.7
20260507081543 49 307 0.0 4.0 0.07 0.30 0.16 94 1010.1
20260507080043 49 307 0.0 4.0 0.07 0.28 0.15 94 1009.6
20260507074538 49 240 0.0 3.0 0.08 0.28 0.14 94 1010.0
20260507073035 49 271 0.0 1.0 0.09 0.25 0.11 93 1010.1
20260507071534 50 307 0.0 3.0 0.09 0.23 0.09 93 1010.0
20260507070033 50 229 0.0 0.0 0.08 0.22 0.08 92 1010.0
20260507064514 50 263 0.0 3.0 0.06 0.20 0.06 92 1009.5
20260507063012 51 297 0.0 3.0 0.01 0.15 0.01 91 1009.7
20260507061552 51 11 0.0 4.0 0.00 0.14 0.00 89 1008.8
20260507060049 51 284 0.0 3.0 0.00 0.14 0.00 89 1009.0
20260507054537 52 299 0.0 5.0 0.00 0.14 0.00 90 1009.3
20260507053029 52 271 0.0 4.0 0.00 0.14 0.00 89 1009.3
20260507051511 52 30 0.0 5.0 0.00 0.14 0.00 90 1009.4
20260507050008 52 143 0.0 4.0 0.00 0.14 0.00 91 1009.3
20260507044550 53 322 0.0 1.0 0.00 0.14 0.00 93 1009.8
20260507043047 53 124 0.0 1.0 0.00 0.14 0.00 93 1009.7
20260507041530 54 124 0.0 1.0 0.00 0.14 0.00 93 1009.4
20260507040026 54 58 0.0 1.0 0.00 0.14 0.14 94 1009.4
20260507034513 55 255 0.0 1.0 0.01 0.14 0.14 94 1009.4
20260507033013 56 288 0.0 1.0 0.01 0.14 0.14 95 1009.4
20260507031512 56 143 0.0 1.0 0.01 0.14 0.14 95 1009.6
20260507030011 56 143 0.0 0.0 0.01 0.14 0.14 95 1009.3
20260507024513 56 143 0.0 0.0 0.00 0.13 0.13 95 1009.2
20260507023010 56 143 0.0 1.0 0.00 0.13 0.13 95 1009.1
20260507021510 56 107 0.0 0.0 0.00 0.13 0.13 95 1009.1
20260507020010 56 86 0.0 2.0 0.00 0.13 0.13 95 1009.1
20260507014506 56 121 0.0 0.0 0.00 0.13 0.13 95 1009.2
20260507013014 56 158 0.0 1.0 0.00 0.13 0.13 94 1009.3